TimeCDT,TemperatureF,Dew PointF,Humidity,Sea Level PressureIn,VisibilityMPH,Wind Direction,Wind SpeedMPH,Gust SpeedMPH,PrecipitationIn,Events,Conditions,WindDirDegrees,DateUTC
12:15 AM,39.2,19.4,45,30.01,10.0,WSW,5.8,-,N/A,,Clear,240,2012-10-08 05:15:00
12:35 AM,37.4,19.4,48,30.01,10.0,WSW,5.8,-,N/A,,Clear,240,2012-10-08 05:35:00
12:55 AM,37.4,19.4,48,30.01,10.0,WSW,5.8,-,N/A,,Clear,240,2012-10-08 05:55:00
1:15 AM,37.4,19.4,48,30.01,10.0,SW,5.8,-,N/A,,Clear,230,2012-10-08 06:15:00
1:35 AM,37.4,19.4,48,30.01,10.0,WSW,5.8,-,N/A,,Clear,240,2012-10-08 06:35:00
1:55 AM,37.4,19.4,48,30.01,10.0,WSW,5.8,-,N/A,,Clear,240,2012-10-08 06:55:00
2:15 AM,37.4,19.4,48,30.01,10.0,WSW,5.8,-,N/A,,Clear,240,2012-10-08 07:15:00
2:35 AM,37.4,19.4,48,30.01,10.0,WSW,5.8,-,N/A,,Clear,240,2012-10-08 07:35:00
2:55 AM,37.4,19.4,48,30.00,10.0,WSW,6.9,-,N/A,,Clear,240,2012-10-08 07:55:00
3:15 AM,35.6,19.4,52,30.00,10.0,WSW,6.9,-,N/A,,Clear,240,2012-10-08 08:15:00
3:35 AM,35.6,19.4,52,30.00,10.0,WSW,5.8,-,N/A,,Clear,240,2012-10-08 08:35:00
3:55 AM,35.6,19.4,52,29.99,10.0,SW,8.1,-,N/A,,Clear,230,2012-10-08 08:55:00
4:15 AM,35.6,19.4,52,29.99,10.0,SW,8.1,-,N/A,,Clear,230,2012-10-08 09:15:00
4:35 AM,35.6,19.4,52,29.99,10.0,SW,5.8,-,N/A,,Clear,230,2012-10-08 09:35:00
4:55 AM,35.6,19.4,52,29.99,10.0,SW,9.2,-,N/A,,Clear,220,2012-10-08 09:55:00
5:15 AM,35.6,19.4,52,29.98,10.0,SW,9.2,-,N/A,,Clear,230,2012-10-08 10:15:00
5:35 AM,35.6,19.4,52,29.98,10.0,SW,9.2,-,N/A,,Clear,220,2012-10-08 10:35:00
5:55 AM,37.4,19.4,48,29.98,10.0,SW,9.2,-,N/A,,Clear,230,2012-10-08 10:55:00
6:15 AM,39.2,21.2,49,29.98,10.0,SW,10.4,-,N/A,,Clear,230,2012-10-08 11:15:00
6:35 AM,39.2,21.2,49,29.98,10.0,SW,8.1,-,N/A,,Clear,230,2012-10-08 11:35:00
6:55 AM,39.2,21.2,49,29.97,10.0,SW,12.7,-,N/A,,Clear,230,2012-10-08 11:55:00
7:15 AM,41.0,24.8,53,29.97,10.0,SW,12.7,18.4,N/A,,Clear,230,2012-10-08 12:15:00
7:35 AM,42.8,26.6,53,29.97,10.0,SW,11.5,-,N/A,,Clear,220,2012-10-08 12:35:00
7:55 AM,42.8,28.4,57,29.97,10.0,SW,13.8,20.7,N/A,,Clear,230,2012-10-08 12:55:00
8:15 AM,44.6,26.6,49,29.97,10.0,SW,17.3,21.9,N/A,,Clear,220,2012-10-08 13:15:00
8:35 AM,44.6,26.6,49,29.97,10.0,SW,17.3,21.9,N/A,,Clear,220,2012-10-08 13:35:00
8:55 AM,44.6,26.6,49,29.96,10.0,SW,16.1,20.7,N/A,,Clear,220,2012-10-08 13:55:00
9:15 AM,46.4,26.6,46,29.96,10.0,SW,12.7,18.4,N/A,,Clear,220,2012-10-08 14:15:00
9:35 AM,46.4,28.4,50,29.96,10.0,SSW,13.8,-,N/A,,Clear,210,2012-10-08 14:35:00
9:55 AM,48.2,28.4,46,29.95,10.0,SSW,16.1,20.7,N/A,,Clear,210,2012-10-08 14:55:00
10:15 AM,48.2,30.2,50,29.95,10.0,SSW,17.3,-,N/A,,Clear,210,2012-10-08 15:15:00
10:35 AM,51.8,30.2,44,29.94,10.0,SW,15.0,23.0,N/A,,Clear,220,2012-10-08 15:35:00
10:55 AM,51.8,32.0,47,29.94,10.0,SSW,13.8,-,N/A,,Mostly Cloudy,210,2012-10-08 15:55:00
11:15 AM,53.6,30.2,41,29.93,10.0,SSW,21.9,26.5,N/A,,Overcast,210,2012-10-08 16:15:00
11:35 AM,53.6,30.2,41,29.92,10.0,SSW,24.2,29.9,N/A,,Overcast,200,2012-10-08 16:35:00
11:55 AM,55.4,30.2,38,29.92,10.0,SSW,19.6,31.1,N/A,,Scattered Clouds,210,2012-10-08 16:55:00
12:15 PM,53.6,30.2,41,29.91,10.0,SW,24.2,33.4,N/A,,Scattered Clouds,220,2012-10-08 17:15:00
12:35 PM,55.4,32.0,41,29.90,10.0,SSW,23.0,31.1,N/A,,Mostly Cloudy,200,2012-10-08 17:35:00
12:55 PM,57.2,30.2,36,29.89,10.0,SSW,25.3,35.7,N/A,,Mostly Cloudy,210,2012-10-08 17:55:00
1:15 PM,55.4,28.4,36,29.87,10.0,SSW,26.5,36.8,N/A,,Scattered Clouds,210,2012-10-08 18:15:00
1:35 PM,55.4,30.2,38,29.87,10.0,SSW,19.6,36.8,N/A,,Mostly Cloudy,210,2012-10-08 18:35:00
1:55 PM,55.4,30.2,38,29.86,10.0,SW,20.7,29.9,N/A,,Overcast,220,2012-10-08 18:55:00
2:15 PM,55.4,30.2,38,29.86,10.0,SW,24.2,33.4,N/A,,Mostly Cloudy,220,2012-10-08 19:15:00
2:35 PM,55.4,30.2,38,29.85,10.0,SSW,24.2,32.2,N/A,,Mostly Cloudy,200,2012-10-08 19:35:00
2:55 PM,55.4,28.4,36,29.85,10.0,SSW,19.6,28.8,N/A,,Overcast,210,2012-10-08 19:55:00
3:15 PM,55.4,30.2,38,29.84,10.0,SSW,19.6,28.8,N/A,,Overcast,210,2012-10-08 20:15:00
3:35 PM,55.4,30.2,38,29.84,10.0,SSW,20.7,28.8,N/A,,Overcast,210,2012-10-08 20:35:00
3:55 PM,55.4,30.2,38,29.83,10.0,SSW,23.0,32.2,N/A,,Overcast,210,2012-10-08 20:55:00
4:15 PM,55.4,30.2,38,29.83,10.0,SSW,19.6,28.8,N/A,,Overcast,210,2012-10-08 21:15:00
4:35 PM,55.4,30.2,38,29.82,10.0,SSW,19.6,32.2,N/A,,Overcast,200,2012-10-08 21:35:00
4:55 PM,55.4,30.2,38,29.81,10.0,SSW,17.3,29.9,N/A,,Overcast,200,2012-10-08 21:55:00
5:15 PM,55.4,30.2,38,29.81,10.0,SSW,18.4,27.6,N/A,,Overcast,210,2012-10-08 22:15:00
5:35 PM,55.4,30.2,38,29.81,10.0,SSW,15.0,21.9,N/A,,Overcast,200,2012-10-08 22:35:00
5:55 PM,55.4,30.2,38,29.81,10.0,SSW,13.8,25.3,N/A,,Overcast,200,2012-10-08 22:55:00
6:15 PM,55.4,30.2,38,29.80,10.0,SSW,18.4,26.5,N/A,,Overcast,200,2012-10-08 23:15:00
6:35 PM,55.4,30.2,38,29.80,10.0,SSW,18.4,26.5,N/A,,Overcast,200,2012-10-08 23:35:00
6:55 PM,55.4,28.4,36,29.80,10.0,SSW,16.1,29.9,N/A,,Overcast,200,2012-10-08 23:55:00
7:15 PM,55.4,30.2,38,29.80,10.0,SSW,12.7,23.0,N/A,,Overcast,200,2012-10-09 00:15:00
7:35 PM,55.4,28.4,36,29.80,10.0,South,20.7,27.6,N/A,,Overcast,190,2012-10-09 00:35:00
7:55 PM,55.4,30.2,38,29.81,10.0,SSW,17.3,26.5,N/A,,Overcast,200,2012-10-09 00:55:00
8:15 PM,55.4,28.4,36,29.80,10.0,SSW,19.6,24.2,N/A,,Overcast,200,2012-10-09 01:15:00
8:35 PM,55.4,30.2,38,29.79,10.0,SSW,16.1,25.3,N/A,,Overcast,200,2012-10-09 01:35:00
8:55 PM,55.4,30.2,38,29.80,10.0,SSW,18.4,24.2,N/A,,Overcast,200,2012-10-09 01:55:00
9:15 PM,55.4,30.2,38,29.79,10.0,SSW,20.7,31.1,N/A,,Overcast,200,2012-10-09 02:15:00
9:35 PM,55.4,30.2,38,29.79,10.0,SSW,23.0,34.5,N/A,,Overcast,210,2012-10-09 02:35:00
9:55 PM,55.4,30.2,38,29.79,10.0,SSW,20.7,35.7,N/A,,Mostly Cloudy,210,2012-10-09 02:55:00
10:15 PM,55.4,30.2,38,29.78,10.0,SSW,24.2,34.5,N/A,,Scattered Clouds,210,2012-10-09 03:15:00
10:55 PM,55.4,30.2,38,29.78,10.0,SSW,25.3,33.4,N/A,,Overcast,210,2012-10-09 03:55:00
11:35 PM,55.4,32.0,41,29.76,10.0,SSW,26.5,35.7,N/A,,Partly Cloudy,210,2012-10-09 04:35:00
11:55 PM,55.4,33.8,44,29.76,10.0,SW,23.0,33.4,N/A,,Partly Cloudy,220,2012-10-09 04:55:00